LBT180 DTTA-GMME

Flight info

Callsign LBT180
Flight time 2h 24m
Altitude 38000
Route KEMIR2A KEMIR UA411 BNA UA31 CHE UA411 VARAS
Aircraft A20N/M-SDE2E3FGHIRWXY/LB1

Departure

Time 2026-05-07 16:12
Airport Tunis Carthage International Airport (DTTA)

Arrival

Time 2026-05-07 18:36
Airport Rabat-Salé Airport (GMME)
Time Latitude Longitude Altitude Speed Heading
2026-05-07 15:50 36.84324 10.21857 32 ft 0 kts 282°
2026-05-07 15:51 36.84325 10.21857 33 ft 0 kts 282°
2026-05-07 16:02 36.84322 10.21874 33 ft 4 kts 282°
2026-05-07 16:03 36.84317 10.21902 33 ft 2 kts 282°
2026-05-07 16:03 36.84316 10.21931 33 ft 4 kts 237°
2026-05-07 16:03 36.84335 10.21953 33 ft 4 kts 202°
2026-05-07 16:03 36.84349 10.21959 33 ft 0 kts 192°
2026-05-07 16:05 36.84348 10.21958 33 ft 1 kts 192°
2026-05-07 16:05 36.84310 10.21948 33 ft 9 kts 192°
2026-05-07 16:06 36.84246 10.21930 33 ft 9 kts 192°
2026-05-07 16:06 36.84207 10.21919 31 ft 9 kts 192°
2026-05-07 16:06 36.84149 10.21903 33 ft 9 kts 192°
2026-05-07 16:06 36.84092 10.21887 33 ft 8 kts 192°
2026-05-07 16:07 36.84037 10.21872 33 ft 8 kts 192°
2026-05-07 16:07 36.83983 10.21857 32 ft 8 kts 192°
2026-05-07 16:07 36.83947 10.21846 33 ft 0 kts 192°
2026-05-07 16:08 36.83932 10.21852 33 ft 8 kts 156°
2026-05-07 16:08 36.83898 10.21913 33 ft 7 kts 103°
2026-05-07 16:09 36.83889 10.21973 33 ft 9 kts 102°
2026-05-07 16:09 36.83870 10.22081 33 ft 14 kts 102°
2026-05-07 16:09 36.83869 10.22198 33 ft 13 kts 76°
2026-05-07 16:09 36.83905 10.22303 34 ft 15 kts 50°
2026-05-07 16:10 36.84003 10.22396 33 ft 19 kts 28°
2026-05-07 16:10 36.84024 10.22406 34 ft 0 kts 14°
2026-05-07 16:11 36.84176 10.22448 34 ft 55 kts 12°
2026-05-07 16:11 36.84765 10.22608 35 ft 116 kts 12°
2026-05-07 16:11 36.85730 10.22870 40 ft 165 kts 12°
2026-05-07 16:11 36.86901 10.23212 336 ft 179 kts 12°
2026-05-07 16:12 36.88070 10.23532 1089 ft 166 kts 12°
2026-05-07 16:12 36.89234 10.23840 1646 ft 177 kts 12°
2026-05-07 16:12 36.90511 10.24173 1966 ft 196 kts 10°
2026-05-07 16:12 36.91877 10.24175 2615 ft 203 kts 347°
2026-05-07 16:13 36.93121 10.23309 3225 ft 215 kts 315°
2026-05-07 16:13 36.93774 10.21577 3635 ft 231 kts 281°
2026-05-07 16:13 36.94112 10.19531 4002 ft 253 kts 285°
2026-05-07 16:13 36.94616 10.17324 4468 ft 271 kts 287°
2026-05-07 16:14 36.95120 10.15039 5290 ft 274 kts 284°
2026-05-07 16:14 36.95504 10.12696 6162 ft 276 kts 279°
2026-05-07 16:14 36.95723 10.10303 7023 ft 278 kts 274°
2026-05-07 16:14 36.95765 10.07865 7813 ft 283 kts 268°
2026-05-07 16:15 36.95620 10.05386 8588 ft 287 kts 262°
2026-05-07 16:15 36.95284 10.02914 9347 ft 290 kts 256°
2026-05-07 16:15 36.94762 10.00474 9828 ft 290 kts 251°
2026-05-07 16:15 36.94058 9.98120 9983 ft 288 kts 245°
2026-05-07 16:16 36.93184 9.95883 9997 ft 287 kts 240°
2026-05-07 16:16 36.92089 9.93654 9986 ft 308 kts 235°
2026-05-07 16:16 36.90855 9.91550 10010 ft 292 kts 232°
2026-05-07 16:16 36.89576 9.89480 9922 ft 317 kts 232°
2026-05-07 16:17 36.88193 9.87250 9879 ft 328 kts 232°
2026-05-07 16:17 36.86816 9.85021 9907 ft 325 kts 233°
2026-05-07 16:17 36.85553 9.82609 9876 ft 337 kts 242°
2026-05-07 16:17 36.84737 9.79955 9905 ft 327 kts 255°
2026-05-07 16:18 36.84401 9.77023 9890 ft 349 kts 265°
2026-05-07 16:18 36.84321 9.74093 9902 ft 330 kts 267°
2026-05-07 16:18 36.84280 9.71129 9896 ft 355 kts 268°
2026-05-07 16:18 36.84239 9.68084 9897 ft 340 kts 268°
2026-05-07 16:19 36.84195 9.65147 9967 ft 346 kts 267°
2026-05-07 16:19 36.84142 9.62065 10214 ft 364 kts 267°
2026-05-07 16:19 36.84082 9.58853 10551 ft 376 kts 267°
2026-05-07 16:19 36.84020 9.55567 11121 ft 380 kts 267°
2026-05-07 16:20 36.83957 9.52271 11774 ft 380 kts 267°
2026-05-07 16:20 36.83892 9.48971 12491 ft 380 kts 266°
2026-05-07 16:20 36.83826 9.45677 13179 ft 381 kts 266°
2026-05-07 16:20 36.83757 9.42354 13790 ft 384 kts 266°
2026-05-07 16:21 36.83687 9.39006 14421 ft 387 kts 266°
2026-05-07 16:21 36.83614 9.35631 15035 ft 390 kts 266°
2026-05-07 16:21 36.83539 9.32232 15633 ft 393 kts 266°
2026-05-07 16:21 36.83463 9.28811 16244 ft 395 kts 266°
2026-05-07 16:22 36.83386 9.25376 16821 ft 397 kts 265°
2026-05-07 16:22 36.83309 9.21913 17336 ft 400 kts 265°
2026-05-07 16:22 36.83230 9.18422 17861 ft 403 kts 265°
2026-05-07 16:22 36.83150 9.14917 18358 ft 405 kts 265°
2026-05-07 16:23 36.83065 9.11390 18847 ft 407 kts 265°
2026-05-07 16:23 36.82980 9.07843 19318 ft 410 kts 265°
2026-05-07 16:23 36.82893 9.04328 19755 ft 412 kts 265°
2026-05-07 16:23 36.82805 9.00744 20229 ft 414 kts 265°
2026-05-07 16:24 36.82733 8.97147 20672 ft 417 kts 266°
2026-05-07 16:24 36.82747 8.93507 21075 ft 421 kts 267°
2026-05-07 16:24 36.82821 8.89847 21501 ft 423 kts 268°
2026-05-07 16:24 36.82921 8.86162 21952 ft 425 kts 268°
2026-05-07 16:25 36.83028 8.82467 22385 ft 428 kts 268°
2026-05-07 16:25 36.83131 8.78748 22846 ft 429 kts 268°
2026-05-07 16:25 36.83225 8.75012 23248 ft 432 kts 268°
2026-05-07 16:25 36.83313 8.71249 23652 ft 435 kts 268°
2026-05-07 16:26 36.83396 8.67469 24013 ft 438 kts 267°
2026-05-07 16:26 36.83461 8.63648 24401 ft 440 kts 266°
2026-05-07 16:26 36.83486 8.59837 24808 ft 440 kts 266°
2026-05-07 16:26 36.83489 8.57306 25169 ft 439 kts 266°
2026-05-07 16:27 36.83482 8.52245 26080 ft 432 kts 265°
2026-05-07 16:27 36.83475 8.48516 26759 ft 427 kts 265°
2026-05-07 16:27 36.83467 8.44822 27367 ft 423 kts 265°
2026-05-07 16:27 36.83460 8.41162 27940 ft 420 kts 265°
2026-05-07 16:28 36.83453 8.37534 28493 ft 416 kts 265°
2026-05-07 16:28 36.83445 8.33934 29044 ft 413 kts 265°
2026-05-07 16:28 36.83438 8.30366 29569 ft 409 kts 265°
2026-05-07 16:28 36.83432 8.26830 30100 ft 406 kts 265°
2026-05-07 16:29 36.83424 8.23318 30626 ft 403 kts 264°
2026-05-07 16:29 36.83416 8.19837 31110 ft 400 kts 264°
2026-05-07 16:29 36.83408 8.16375 31583 ft 397 kts 264°
2026-05-07 16:29 36.83401 8.14093 31885 ft 396 kts 264°
2026-05-07 16:30 36.83391 8.10673 32374 ft 392 kts 263°
2026-05-07 16:30 36.83381 8.07291 32842 ft 389 kts 263°
2026-05-07 16:30 36.83368 8.03931 33300 ft 385 kts 263°
2026-05-07 16:30 36.83353 8.00597 33700 ft 383 kts 263°
2026-05-07 16:31 36.83337 7.97283 34089 ft 380 kts 262°
2026-05-07 16:31 36.83321 7.94027 34488 ft 377 kts 262°
2026-05-07 16:31 36.83305 7.90729 34840 ft 375 kts 262°
2026-05-07 16:31 36.83287 7.87469 35145 ft 374 kts 262°
2026-05-07 16:32 36.83269 7.84227 35452 ft 373 kts 262°
2026-05-07 16:32 36.83247 7.80998 35739 ft 371 kts 262°
2026-05-07 16:32 36.83220 7.77824 36021 ft 370 kts 262°
2026-05-07 16:32 36.83186 7.74576 36295 ft 369 kts 262°
2026-05-07 16:33 36.83151 7.71422 36546 ft 368 kts 261°
2026-05-07 16:33 36.83115 7.68236 36817 ft 366 kts 261°
2026-05-07 16:33 36.83079 7.65069 37113 ft 363 kts 261°
2026-05-07 16:33 36.83044 7.61925 37396 ft 361 kts 261°
2026-05-07 16:34 36.83009 7.58805 37696 ft 358 kts 261°
2026-05-07 16:34 36.82972 7.55708 37845 ft 357 kts 261°
2026-05-07 16:34 36.82933 7.52609 37859 ft 355 kts 261°
2026-05-07 16:35 36.82854 7.46464 37857 ft 353 kts 261°
2026-05-07 16:35 36.82772 7.40333 37860 ft 353 kts 261°
2026-05-07 16:36 36.82687 7.34201 37860 ft 353 kts 261°
2026-05-07 16:36 36.82601 7.28063 37863 ft 353 kts 261°
2026-05-07 16:37 36.82511 7.21920 37866 ft 354 kts 260°
2026-05-07 16:37 36.82417 7.15768 37867 ft 355 kts 261°
2026-05-07 16:38 36.82323 7.09604 37865 ft 355 kts 261°
2026-05-07 16:38 36.82224 7.03440 37879 ft 355 kts 260°
2026-05-07 16:39 36.82120 6.97301 37867 ft 356 kts 260°
2026-05-07 16:39 36.82013 6.91090 37880 ft 356 kts 260°
2026-05-07 16:40 36.81906 6.84909 37874 ft 357 kts 260°
2026-05-07 16:40 36.81793 6.78710 37873 ft 357 kts 260°
2026-05-07 16:41 36.81677 6.72511 37870 ft 357 kts 260°
2026-05-07 16:41 36.81558 6.66314 37857 ft 357 kts 260°
2026-05-07 16:42 36.81435 6.60117 37863 ft 357 kts 259°
2026-05-07 16:42 36.81311 6.53910 37862 ft 357 kts 259°
2026-05-07 16:43 36.81181 6.47709 37860 ft 357 kts 259°
2026-05-07 16:43 36.81045 6.41513 37859 ft 357 kts 259°
2026-05-07 16:44 36.80911 6.35325 37858 ft 356 kts 259°
2026-05-07 16:44 36.80771 6.29141 37859 ft 357 kts 259°
2026-05-07 16:45 36.80631 6.22948 37858 ft 357 kts 259°
2026-05-07 16:45 36.80488 6.16807 37855 ft 356 kts 259°
2026-05-07 16:46 36.80340 6.10620 37858 ft 356 kts 259°
2026-05-07 16:46 36.80191 6.04437 37860 ft 357 kts 259°
2026-05-07 16:47 36.80038 5.98257 37860 ft 356 kts 259°
2026-05-07 16:47 36.79874 5.92045 37861 ft 361 kts 259°
2026-05-07 16:48 36.79553 5.85805 37862 ft 359 kts 256°
2026-05-07 16:48 36.78983 5.79615 37861 ft 359 kts 255°
2026-05-07 16:49 36.78358 5.73405 37858 ft 359 kts 255°
2026-05-07 16:49 36.77730 5.67266 37861 ft 359 kts 255°
2026-05-07 16:50 36.77099 5.61083 37862 ft 359 kts 255°
2026-05-07 16:50 36.76466 5.54885 37871 ft 360 kts 255°
2026-05-07 16:51 36.75830 5.48680 37878 ft 361 kts 255°
2026-05-07 16:51 36.75190 5.42462 37890 ft 362 kts 255°
2026-05-07 16:52 36.74544 5.36226 37894 ft 362 kts 255°
2026-05-07 16:52 36.73895 5.29981 37900 ft 363 kts 255°
2026-05-07 16:53 36.73241 5.23730 37906 ft 364 kts 256°
2026-05-07 16:53 36.72581 5.17453 37907 ft 366 kts 256°
2026-05-07 16:54 36.71919 5.11192 37907 ft 367 kts 256°
2026-05-07 16:54 36.71372 5.04839 37915 ft 371 kts 259°
2026-05-07 16:55 36.71119 4.98394 37914 ft 373 kts 261°
2026-05-07 16:55 36.70925 4.91934 37912 ft 374 kts 261°
2026-05-07 16:56 36.70702 4.85461 37905 ft 374 kts 260°
2026-05-07 16:56 36.70324 4.75718 37908 ft 376 kts 260°
2026-05-07 16:57 36.70063 4.69205 37900 ft 376 kts 261°
2026-05-07 16:57 36.69800 4.62679 37907 ft 378 kts 261°
2026-05-07 16:58 36.69531 4.56137 37905 ft 379 kts 261°
2026-05-07 16:58 36.69259 4.49622 37902 ft 379 kts 261°
2026-05-07 16:59 36.68983 4.43047 37905 ft 380 kts 261°
2026-05-07 16:59 36.68702 4.36460 37905 ft 381 kts 261°
2026-05-07 17:00 36.68416 4.29852 37905 ft 382 kts 261°
2026-05-07 17:00 36.68127 4.23249 37899 ft 382 kts 261°
2026-05-07 17:01 36.67834 4.16639 37896 ft 383 kts 261°
2026-05-07 17:01 36.67536 4.10008 37895 ft 383 kts 261°
2026-05-07 17:02 36.67237 4.03393 37898 ft 383 kts 261°
2026-05-07 17:02 36.66932 3.96763 37894 ft 383 kts 261°
2026-05-07 17:03 36.66620 3.90103 37888 ft 387 kts 261°
2026-05-07 17:03 36.66304 3.83403 37888 ft 388 kts 261°
2026-05-07 17:04 36.65988 3.76722 37887 ft 388 kts 261°
2026-05-07 17:04 36.65664 3.69975 37891 ft 388 kts 261°
2026-05-07 17:05 36.65338 3.63310 37888 ft 388 kts 261°
2026-05-07 17:05 36.65459 3.56534 37888 ft 395 kts 269°
2026-05-07 17:06 36.66098 3.49714 37891 ft 397 kts 270°
2026-05-07 17:06 36.66836 3.42887 37886 ft 398 kts 271°
2026-05-07 17:07 36.67580 3.36043 37892 ft 399 kts 271°
2026-05-07 17:07 36.68307 3.29201 37885 ft 398 kts 271°
2026-05-07 17:08 36.68903 3.22355 37891 ft 394 kts 265°
2026-05-07 17:08 36.68619 3.15591 37892 ft 390 kts 260°
2026-05-07 17:09 36.68177 3.09996 37887 ft 390 kts 259°
2026-05-07 17:09 36.67491 3.02182 37892 ft 390 kts 259°
2026-05-07 17:10 36.66903 2.95457 37886 ft 391 kts 259°
2026-05-07 17:10 36.66415 2.89811 37887 ft 391 kts 259°
2026-05-07 17:11 36.65833 2.83070 37885 ft 392 kts 259°
2026-05-07 17:11 36.65248 2.76323 37890 ft 392 kts 259°
2026-05-07 17:12 36.64657 2.69574 37886 ft 392 kts 259°
2026-05-07 17:12 36.64068 2.62868 37888 ft 392 kts 259°
2026-05-07 17:13 36.63469 2.56113 37886 ft 393 kts 259°
2026-05-07 17:13 36.62866 2.49339 37885 ft 393 kts 259°
2026-05-07 17:14 36.62258 2.42567 37888 ft 393 kts 259°
2026-05-07 17:14 36.61647 2.35796 37899 ft 393 kts 259°
2026-05-07 17:15 36.61031 2.29024 37901 ft 394 kts 259°
2026-05-07 17:15 36.60384 2.22242 37894 ft 393 kts 256°
2026-05-07 17:16 36.58901 2.15761 37899 ft 388 kts 246°
2026-05-07 17:16 36.56906 2.09570 37899 ft 387 kts 245°
2026-05-07 17:17 36.54786 2.03368 37899 ft 387 kts 244°
2026-05-07 17:17 36.52683 1.97238 37907 ft 388 kts 245°
2026-05-07 17:18 36.50566 1.91033 37905 ft 391 kts 245°
2026-05-07 17:18 36.48449 1.84812 37905 ft 391 kts 245°
2026-05-07 17:19 36.46328 1.78587 37907 ft 391 kts 245°
2026-05-07 17:19 36.44206 1.72371 37906 ft 391 kts 245°
2026-05-07 17:20 36.42077 1.66152 37906 ft 391 kts 245°
2026-05-07 17:20 36.39946 1.59937 37907 ft 391 kts 245°
2026-05-07 17:21 36.37807 1.53720 37908 ft 392 kts 245°
2026-05-07 17:21 36.35681 1.47502 37905 ft 392 kts 245°
2026-05-07 17:22 36.33575 1.41225 37932 ft 392 kts 246°
2026-05-07 17:22 36.31484 1.34977 37935 ft 392 kts 246°
2026-05-07 17:23 36.29383 1.28719 37937 ft 393 kts 246°
2026-05-07 17:23 36.27273 1.22461 37931 ft 393 kts 246°
2026-05-07 17:24 36.25159 1.16207 37933 ft 394 kts 246°
2026-05-07 17:24 36.23035 1.09936 37933 ft 395 kts 246°
2026-05-07 17:25 36.20918 1.03698 37938 ft 396 kts 246°
2026-05-07 17:25 36.18779 0.97410 37944 ft 396 kts 246°
2026-05-07 17:26 36.16635 0.91116 37943 ft 397 kts 246°
2026-05-07 17:26 36.14480 0.84805 37945 ft 398 kts 247°
2026-05-07 17:27 36.12318 0.78487 37942 ft 399 kts 247°
2026-05-07 17:27 36.10149 0.72161 37945 ft 400 kts 247°
2026-05-07 17:28 36.07973 0.65828 37946 ft 401 kts 248°
2026-05-07 17:28 36.05790 0.59487 37941 ft 401 kts 248°
2026-05-07 17:29 36.03598 0.53136 37947 ft 402 kts 248°
2026-05-07 17:29 36.01400 0.46780 37942 ft 403 kts 248°
2026-05-07 17:30 35.99194 0.40416 37948 ft 403 kts 248°
2026-05-07 17:30 35.96985 0.34053 37946 ft 403 kts 248°
2026-05-07 17:31 35.94776 0.27703 37947 ft 403 kts 248°
2026-05-07 17:31 35.92559 0.21344 37946 ft 403 kts 248°
2026-05-07 17:32 35.90340 0.14992 37943 ft 404 kts 248°
2026-05-07 17:32 35.88106 0.08680 37925 ft 404 kts 248°
2026-05-07 17:33 35.85829 0.02327 37928 ft 404 kts 248°
2026-05-07 17:33 35.83550 -0.04015 37924 ft 404 kts 248°
2026-05-07 17:34 35.81287 -0.10302 37926 ft 396 kts 250°
2026-05-07 17:34 35.79086 -0.16407 37924 ft 386 kts 250°
2026-05-07 17:35 35.76912 -0.22436 37917 ft 384 kts 250°
2026-05-07 17:35 35.74742 -0.28452 37914 ft 385 kts 250°
2026-05-07 17:36 35.72565 -0.34470 37916 ft 385 kts 250°
2026-05-07 17:36 35.70384 -0.40486 37915 ft 385 kts 250°
2026-05-07 17:37 35.68194 -0.46511 37917 ft 386 kts 250°
2026-05-07 17:37 35.66000 -0.52529 37915 ft 385 kts 250°
2026-05-07 17:38 35.63807 -0.58542 37916 ft 385 kts 250°
2026-05-07 17:38 35.61532 -0.64469 37915 ft 388 kts 245°
2026-05-07 17:39 35.58448 -0.69977 37916 ft 393 kts 239°
2026-05-07 17:39 35.55097 -0.75315 37916 ft 394 kts 238°
2026-05-07 17:40 35.51697 -0.80607 37916 ft 395 kts 238°
2026-05-07 17:40 35.48300 -0.85902 37915 ft 395 kts 238°
2026-05-07 17:41 35.44915 -0.91200 37925 ft 395 kts 238°
2026-05-07 17:41 35.41530 -0.96499 37928 ft 395 kts 238°
2026-05-07 17:42 35.38143 -1.01797 37923 ft 395 kts 238°
2026-05-07 17:42 35.34752 -1.07092 37927 ft 395 kts 238°
2026-05-07 17:43 35.31361 -1.12378 37927 ft 395 kts 238°
2026-05-07 17:43 35.27968 -1.17657 37925 ft 394 kts 238°
2026-05-07 17:44 35.24573 -1.22933 37925 ft 394 kts 238°
2026-05-07 17:44 35.21174 -1.28205 37921 ft 395 kts 238°
2026-05-07 17:45 35.17772 -1.33477 37915 ft 395 kts 238°
2026-05-07 17:45 35.14364 -1.38747 37915 ft 395 kts 238°
2026-05-07 17:46 35.10954 -1.44012 37918 ft 395 kts 238°
2026-05-07 17:46 35.07563 -1.49240 37915 ft 395 kts 238°
2026-05-07 17:47 35.04147 -1.54503 37916 ft 396 kts 238°
2026-05-07 17:47 35.00725 -1.59762 37914 ft 395 kts 237°
2026-05-07 17:48 34.97305 -1.65012 37914 ft 395 kts 237°
2026-05-07 17:48 34.93883 -1.70258 37923 ft 395 kts 237°
2026-05-07 17:49 34.90456 -1.75503 37927 ft 396 kts 237°
2026-05-07 17:49 34.87024 -1.80748 37935 ft 396 kts 237°
2026-05-07 17:50 34.83573 -1.85963 37935 ft 396 kts 236°
2026-05-07 17:50 34.80647 -1.90253 37933 ft 396 kts 236°
2026-05-07 17:51 34.77532 -1.95688 37934 ft 388 kts 247°
2026-05-07 17:51 34.75547 -2.01730 37935 ft 384 kts 254°
2026-05-07 17:52 34.73903 -2.07909 37936 ft 385 kts 256°
2026-05-07 17:52 34.72310 -2.14130 37934 ft 385 kts 256°
2026-05-07 17:53 34.70698 -2.20341 37934 ft 385 kts 255°
2026-05-07 17:53 34.69065 -2.26551 37932 ft 386 kts 255°
2026-05-07 17:54 34.67422 -2.32763 37933 ft 386 kts 255°
2026-05-07 17:54 34.65776 -2.38969 37935 ft 386 kts 255°
2026-05-07 17:55 34.64149 -2.45090 37927 ft 386 kts 255°
2026-05-07 17:55 34.62473 -2.51383 37926 ft 386 kts 255°
2026-05-07 17:56 34.60818 -2.57581 37925 ft 386 kts 255°
2026-05-07 17:56 34.59149 -2.63769 37927 ft 386 kts 255°
2026-05-07 17:57 34.57743 -2.68911 37927 ft 386 kts 255°
2026-05-07 17:57 34.55762 -2.76132 37922 ft 386 kts 255°
2026-05-07 17:58 34.54083 -2.82324 37915 ft 387 kts 255°
2026-05-07 17:58 34.52404 -2.88532 37915 ft 387 kts 255°
2026-05-07 17:59 34.50720 -2.94742 37915 ft 387 kts 255°
2026-05-07 17:59 34.49031 -3.00944 37915 ft 388 kts 255°
2026-05-07 18:00 34.47338 -3.07152 37915 ft 388 kts 255°
2026-05-07 18:00 34.45641 -3.13364 37914 ft 388 kts 255°
2026-05-07 18:01 34.43942 -3.19565 37916 ft 388 kts 255°
2026-05-07 18:01 34.42239 -3.25769 37925 ft 388 kts 254°
2026-05-07 18:02 34.39672 -3.35090 37925 ft 389 kts 254°
2026-05-07 18:03 34.37956 -3.41307 37922 ft 389 kts 254°
2026-05-07 18:03 34.36237 -3.47528 37921 ft 390 kts 254°
2026-05-07 18:04 34.34550 -3.53731 37925 ft 390 kts 255°
2026-05-07 18:04 34.32861 -3.59983 37926 ft 391 kts 255°
2026-05-07 18:05 34.31167 -3.66233 37924 ft 391 kts 254°
2026-05-07 18:05 34.29467 -3.72489 37922 ft 392 kts 254°
2026-05-07 18:06 34.27762 -3.78747 37925 ft 392 kts 254°
2026-05-07 18:06 34.26052 -3.85002 37925 ft 392 kts 254°
2026-05-07 18:07 34.24340 -3.91252 37933 ft 392 kts 254°
2026-05-07 18:07 34.22632 -3.97475 37933 ft 392 kts 254°
2026-05-07 18:08 34.20918 -4.03699 37932 ft 392 kts 254°
2026-05-07 18:08 34.19192 -4.09960 37931 ft 392 kts 254°
2026-05-07 18:09 34.17463 -4.16218 37801 ft 393 kts 254°
2026-05-07 18:09 34.16584 -4.19344 37309 ft 393 kts 253°
2026-05-07 18:09 34.15692 -4.22472 36695 ft 394 kts 253°
2026-05-07 18:09 34.14793 -4.25601 36062 ft 395 kts 253°
2026-05-07 18:10 34.13889 -4.28736 35434 ft 396 kts 254°
2026-05-07 18:10 34.12983 -4.31874 34793 ft 396 kts 254°
2026-05-07 18:10 34.12074 -4.35023 34173 ft 398 kts 254°
2026-05-07 18:10 34.11158 -4.38198 33553 ft 402 kts 254°
2026-05-07 18:11 34.10236 -4.41394 32924 ft 404 kts 254°
2026-05-07 18:11 34.09624 -4.43514 32503 ft 406 kts 253°
2026-05-07 18:11 34.08383 -4.47808 31664 ft 411 kts 252°
2026-05-07 18:11 34.07438 -4.51072 31044 ft 415 kts 252°
2026-05-07 18:12 34.06482 -4.54370 30414 ft 418 kts 252°
2026-05-07 18:12 34.05519 -4.57689 29785 ft 421 kts 252°
2026-05-07 18:12 34.04548 -4.61028 29156 ft 423 kts 252°
2026-05-07 18:12 34.03570 -4.64386 28516 ft 425 kts 252°
2026-05-07 18:13 34.02591 -4.67747 27901 ft 426 kts 252°
2026-05-07 18:13 34.01605 -4.71128 27270 ft 428 kts 252°
2026-05-07 18:13 34.00616 -4.74520 26641 ft 430 kts 251°
2026-05-07 18:13 33.99622 -4.77922 26017 ft 431 kts 251°
2026-05-07 18:14 33.98623 -4.81339 25388 ft 433 kts 251°
2026-05-07 18:14 33.97615 -4.84779 24765 ft 436 kts 251°
2026-05-07 18:14 33.96604 -4.88227 24130 ft 437 kts 251°
2026-05-07 18:14 33.95588 -4.91688 23503 ft 439 kts 250°
2026-05-07 18:15 33.94569 -4.95154 22876 ft 438 kts 250°
2026-05-07 18:15 33.93654 -4.98647 22246 ft 435 kts 256°
2026-05-07 18:15 33.93168 -5.02226 21621 ft 432 kts 264°
2026-05-07 18:15 33.93133 -5.05834 20999 ft 429 kts 269°
2026-05-07 18:16 33.93283 -5.09411 20370 ft 426 kts 272°
2026-05-07 18:16 33.93530 -5.12957 19752 ft 423 kts 273°
2026-05-07 18:16 33.93820 -5.16476 19126 ft 420 kts 273°
2026-05-07 18:16 33.94120 -5.19963 18503 ft 417 kts 274°
2026-05-07 18:17 33.94413 -5.23415 17879 ft 413 kts 273°
2026-05-07 18:17 33.94694 -5.26849 17255 ft 410 kts 273°
2026-05-07 18:17 33.94961 -5.30219 16637 ft 407 kts 272°
2026-05-07 18:17 33.95225 -5.33660 16005 ft 405 kts 272°
2026-05-07 18:18 33.95475 -5.36982 15385 ft 403 kts 272°
2026-05-07 18:18 33.95724 -5.40337 14763 ft 401 kts 272°
2026-05-07 18:18 33.95974 -5.43717 14131 ft 399 kts 272°
2026-05-07 18:18 33.96217 -5.46998 13517 ft 397 kts 272°
2026-05-07 18:19 33.96461 -5.50304 12895 ft 395 kts 272°
2026-05-07 18:19 33.96703 -5.53596 12268 ft 393 kts 271°
2026-05-07 18:19 33.96943 -5.56866 11645 ft 391 kts 271°
2026-05-07 18:19 33.97181 -5.60133 11018 ft 390 kts 272°
2026-05-07 18:20 33.97416 -5.63367 10404 ft 384 kts 272°
2026-05-07 18:20 33.97649 -5.66579 10033 ft 386 kts 273°
2026-05-07 18:20 33.97881 -5.69820 9938 ft 390 kts 273°
2026-05-07 18:20 33.98114 -5.73040 9933 ft 375 kts 273°
2026-05-07 18:21 33.98341 -5.76091 9947 ft 366 kts 273°
2026-05-07 18:21 33.98572 -5.79233 9929 ft 381 kts 273°
2026-05-07 18:21 33.98800 -5.82307 9936 ft 356 kts 273°
2026-05-07 18:21 33.99017 -5.85256 9939 ft 362 kts 273°
2026-05-07 18:22 33.99235 -5.88236 9769 ft 348 kts 273°
2026-05-07 18:22 33.99303 -5.89166 9709 ft 342 kts 273°
2026-05-07 18:22 33.99643 -5.93759 9390 ft 313 kts 273°
2026-05-07 18:22 33.99827 -5.96283 9203 ft 300 kts 273°
2026-05-07 18:23 34.00007 -5.98777 9009 ft 290 kts 273°
2026-05-07 18:23 34.00179 -6.01175 8940 ft 287 kts 273°
2026-05-07 18:23 34.00348 -6.03550 8934 ft 288 kts 274°
2026-05-07 18:23 34.00520 -6.05962 8934 ft 289 kts 274°
2026-05-07 18:24 34.00692 -6.08371 8931 ft 289 kts 274°
2026-05-07 18:24 34.00864 -6.10782 8925 ft 289 kts 273°
2026-05-07 18:24 34.01036 -6.13196 8925 ft 289 kts 273°
2026-05-07 18:24 34.01207 -6.15606 8925 ft 289 kts 273°
2026-05-07 18:25 34.01378 -6.18020 8924 ft 289 kts 273°
2026-05-07 18:25 34.01549 -6.20431 8925 ft 289 kts 273°
2026-05-07 18:25 34.01719 -6.22842 8925 ft 289 kts 273°
2026-05-07 18:25 34.01888 -6.25253 8858 ft 289 kts 273°
2026-05-07 18:26 34.02062 -6.27669 8484 ft 289 kts 275°
2026-05-07 18:26 34.02519 -6.30026 8028 ft 289 kts 290°
2026-05-07 18:26 34.03395 -6.32169 7580 ft 284 kts 299°
2026-05-07 18:26 34.04407 -6.34204 7078 ft 283 kts 301°
2026-05-07 18:27 34.05452 -6.36205 6442 ft 282 kts 302°
2026-05-07 18:27 34.06505 -6.38186 5877 ft 278 kts 302°
2026-05-07 18:27 34.07545 -6.40134 5321 ft 275 kts 302°
2026-05-07 18:27 34.08229 -6.41415 4962 ft 272 kts 302°
2026-05-07 18:28 34.09242 -6.43306 4528 ft 264 kts 303°
2026-05-07 18:28 34.10221 -6.45135 4181 ft 256 kts 303°
2026-05-07 18:28 34.11173 -6.46915 3834 ft 249 kts 303°
2026-05-07 18:28 34.12101 -6.48645 3514 ft 242 kts 304°
2026-05-07 18:29 34.13171 -6.50178 3191 ft 237 kts 321°
2026-05-07 18:29 34.14552 -6.51335 3016 ft 246 kts 326°
2026-05-07 18:29 34.15924 -6.52414 3001 ft 224 kts 329°
2026-05-07 18:29 34.17174 -6.53315 3024 ft 197 kts 328°
2026-05-07 18:30 34.18280 -6.54205 3009 ft 188 kts 324°
2026-05-07 18:30 34.19314 -6.55177 2999 ft 188 kts 320°
2026-05-07 18:30 34.20285 -6.56238 2998 ft 188 kts 316°
2026-05-07 18:30 34.21185 -6.57386 2997 ft 188 kts 310°
2026-05-07 18:31 34.21852 -6.58738 2999 ft 189 kts 292°
2026-05-07 18:31 34.22097 -6.60302 3000 ft 191 kts 272°
2026-05-07 18:31 34.21873 -6.61766 2990 ft 165 kts 251°
2026-05-07 18:31 34.21336 -6.62922 3003 ft 155 kts 235°
2026-05-07 18:32 34.20577 -6.63821 3002 ft 156 kts 219°
2026-05-07 18:32 34.19611 -6.64482 3003 ft 158 kts 210°
2026-05-07 18:32 34.18649 -6.65117 2994 ft 158 kts 214°
2026-05-07 18:32 34.17729 -6.65805 2834 ft 157 kts 215°
2026-05-07 18:33 34.16794 -6.66498 2615 ft 157 kts 214°
2026-05-07 18:33 34.15862 -6.67184 2397 ft 156 kts 214°
2026-05-07 18:33 34.14945 -6.67864 2197 ft 153 kts 214°
2026-05-07 18:33 34.14082 -6.68504 1995 ft 140 kts 214°
2026-05-07 18:34 34.13266 -6.69111 1807 ft 137 kts 215°
2026-05-07 18:34 34.12455 -6.69714 1628 ft 137 kts 214°
2026-05-07 18:34 34.11644 -6.70316 1444 ft 137 kts 214°
2026-05-07 18:34 34.10837 -6.70915 1264 ft 136 kts 214°
2026-05-07 18:35 34.10034 -6.71512 1085 ft 136 kts 214°
2026-05-07 18:35 34.09231 -6.72108 904 ft 135 kts 214°
2026-05-07 18:35 34.08431 -6.72701 725 ft 134 kts 214°
2026-05-07 18:35 34.07635 -6.73292 547 ft 135 kts 214°
2026-05-07 18:36 34.06839 -6.73884 358 ft 134 kts 214°
2026-05-07 18:36 34.06078 -6.74471 240 ft 121 kts 212°
2026-05-07 18:36 34.05513 -6.74892 249 ft 69 kts 213°
2026-05-07 18:36 34.05249 -6.75088 250 ft 28 kts 210°
2026-05-07 18:37 34.05081 -6.75203 251 ft 27 kts 211°
2026-05-07 18:37 34.04922 -6.75318 254 ft 26 kts 211°
2026-05-07 18:37 34.04771 -6.75425 257 ft 24 kts 210°
2026-05-07 18:37 34.04633 -6.75526 261 ft 22 kts 211°
2026-05-07 18:38 34.04503 -6.75620 262 ft 22 kts 211°
2026-05-07 18:38 34.04376 -6.75712 264 ft 21 kts 212°
2026-05-07 18:38 34.04250 -6.75806 264 ft 21 kts 211°
2026-05-07 18:38 34.04157 -6.75736 264 ft 18 kts 120°
2026-05-07 18:39 34.04096 -6.75604 264 ft 18 kts 118°
2026-05-07 18:39 34.04027 -6.75475 264 ft 19 kts 122°
2026-05-07 18:39 34.03958 -6.75340 264 ft 19 kts 121°
2026-05-07 18:39 34.03889 -6.75200 264 ft 20 kts 120°
2026-05-07 18:40 34.03835 -6.75065 264 ft 7 kts 74°
2026-05-07 18:40 34.03853 -6.75044 264 ft 4 kts 35°
2026-05-07 18:40 34.03873 -6.75021 263 ft 5 kts 46°
2026-05-07 18:40 34.03903 -6.74983 263 ft 7 kts 47°
2026-05-07 18:41 34.03894 -6.74937 263 ft 6 kts 150°
2026-05-07 18:41 34.03875 -6.74928 263 ft 0 kts 163°
2026-05-07 18:43 34.03868 -6.74924 263 ft 0 kts 174°